#datetime,building,power
2023-04-23T00:00:00,mcc,48.00
2023-04-23T00:01:00,mcc,45.15
2023-04-23T00:02:00,mcc,45.89
2023-04-23T00:03:00,mcc,45.97
2023-04-23T00:04:00,mcc,45.94
2023-04-23T00:05:00,mcc,46.21
2023-04-23T00:06:00,mcc,46.26
2023-04-23T00:07:00,mcc,48.05
2023-04-23T00:08:00,mcc,44.55
2023-04-23T00:09:00,mcc,43.98
2023-04-23T00:10:00,mcc,44.53
2023-04-23T00:11:00,mcc,45.33
2023-04-23T00:12:00,mcc,45.53
2023-04-23T00:13:00,mcc,46.37
2023-04-23T00:14:00,mcc,47.74
2023-04-23T00:15:00,mcc,47.92
2023-04-23T00:16:00,mcc,47.48
2023-04-23T00:17:00,mcc,45.34
2023-04-23T00:18:00,mcc,47.29
2023-04-23T00:19:00,mcc,54.38
2023-04-23T00:20:00,mcc,45.64
2023-04-23T00:21:00,mcc,46.10
2023-04-23T00:22:00,mcc,51.58
2023-04-23T00:23:00,mcc,49.64
2023-04-23T00:24:00,mcc,48.13
2023-04-23T00:25:00,mcc,50.53
2023-04-23T00:26:00,mcc,48.62
2023-04-23T00:27:00,mcc,48.23
2023-04-23T00:28:00,mcc,47.25
2023-04-23T00:29:00,mcc,45.95
2023-04-23T00:30:00,mcc,43.82
2023-04-23T00:31:00,mcc,45.34
2023-04-23T00:32:00,mcc,46.06
2023-04-23T00:33:00,mcc,47.65
2023-04-23T00:34:00,mcc,48.66
2023-04-23T00:35:00,mcc,49.82
2023-04-23T00:36:00,mcc,51.52
2023-04-23T00:37:00,mcc,50.45
2023-04-23T00:38:00,mcc,50.54
2023-04-23T00:39:00,mcc,52.03
2023-04-23T00:40:00,mcc,50.37
2023-04-23T00:41:00,mcc,47.74
2023-04-23T00:42:00,mcc,46.09
2023-04-23T00:43:00,mcc,47.90
2023-04-23T00:44:00,mcc,45.62
2023-04-23T00:45:00,mcc,46.15
2023-04-23T00:46:00,mcc,40.81
2023-04-23T00:47:00,mcc,37.93
2023-04-23T00:48:00,mcc,38.96
2023-04-23T00:49:00,mcc,40.83
2023-04-23T00:50:00,mcc,40.91
2023-04-23T00:51:00,mcc,40.49
2023-04-23T00:52:00,mcc,42.00
2023-04-23T00:53:00,mcc,42.21
2023-04-23T00:54:00,mcc,44.41
2023-04-23T00:55:00,mcc,41.67
2023-04-23T00:56:00,mcc,41.04
2023-04-23T00:57:00,mcc,40.43
2023-04-23T00:58:00,mcc,39.36
2023-04-23T00:59:00,mcc,37.87
2023-04-23T01:00:00,mcc,47.79
2023-04-23T01:01:00,mcc,41.10
2023-04-23T01:02:00,mcc,39.90
2023-04-23T01:03:00,mcc,38.83
2023-04-23T01:04:00,mcc,37.63
2023-04-23T01:05:00,mcc,35.88
2023-04-23T01:06:00,mcc,35.36
2023-04-23T01:07:00,mcc,34.95
2023-04-23T01:08:00,mcc,39.38
2023-04-23T01:09:00,mcc,39.74
2023-04-23T01:10:00,mcc,40.91
2023-04-23T01:11:00,mcc,40.40
2023-04-23T01:12:00,mcc,40.98
2023-04-23T01:13:00,mcc,40.28
2023-04-23T01:14:00,mcc,39.70
2023-04-23T01:15:00,mcc,42.92
2023-04-23T01:16:00,mcc,40.00
2023-04-23T01:17:00,mcc,39.37
2023-04-23T01:18:00,mcc,41.20
2023-04-23T01:19:00,mcc,41.27
2023-04-23T01:20:00,mcc,47.85
2023-04-23T01:21:00,mcc,42.32
2023-04-23T01:22:00,mcc,43.70
2023-04-23T01:23:00,mcc,44.78
2023-04-23T01:24:00,mcc,43.70
2023-04-23T01:25:00,mcc,41.93
2023-04-23T01:26:00,mcc,45.15
2023-04-23T01:27:00,mcc,44.10
2023-04-23T01:28:00,mcc,42.10
2023-04-23T01:29:00,mcc,39.83
2023-04-23T01:30:00,mcc,38.61
2023-04-23T01:31:00,mcc,36.91
2023-04-23T01:32:00,mcc,36.22
2023-04-23T01:33:00,mcc,38.84
2023-04-23T01:34:00,mcc,36.78
2023-04-23T01:35:00,mcc,39.52
2023-04-23T01:36:00,mcc,39.58
2023-04-23T01:37:00,mcc,41.09
2023-04-23T01:38:00,mcc,40.29
2023-04-23T01:39:00,mcc,38.87
2023-04-23T01:40:00,mcc,47.24
2023-04-23T01:41:00,mcc,36.91
2023-04-23T01:42:00,mcc,36.95
2023-04-23T01:43:00,mcc,37.80
2023-04-23T01:44:00,mcc,42.44
2023-04-23T01:45:00,mcc,40.84
2023-04-23T01:46:00,mcc,40.79
2023-04-23T01:47:00,mcc,44.44
2023-04-23T01:48:00,mcc,42.72
2023-04-23T01:49:00,mcc,42.01
2023-04-23T01:50:00,mcc,41.30
2023-04-23T01:51:00,mcc,45.97
2023-04-23T01:52:00,mcc,44.89
2023-04-23T01:53:00,mcc,43.58
2023-04-23T01:54:00,mcc,42.57
2023-04-23T01:55:00,mcc,44.62
2023-04-23T01:56:00,mcc,51.36
2023-04-23T01:57:00,mcc,51.52
2023-04-23T01:58:00,mcc,50.37
2023-04-23T01:59:00,mcc,48.41
2023-04-23T02:00:00,mcc,40.76
2023-04-23T02:01:00,mcc,49.29
2023-04-23T02:02:00,mcc,43.32
2023-04-23T02:03:00,mcc,52.91
2023-04-23T02:04:00,mcc,42.34
2023-04-23T02:05:00,mcc,43.10
2023-04-23T02:06:00,mcc,40.59
2023-04-23T02:07:00,mcc,40.98
2023-04-23T02:08:00,mcc,45.22
2023-04-23T02:09:00,mcc,42.10
2023-04-23T02:10:00,mcc,41.62
2023-04-23T02:11:00,mcc,40.76
2023-04-23T02:12:00,mcc,39.67
2023-04-23T02:13:00,mcc,43.95
2023-04-23T02:14:00,mcc,40.39
2023-04-23T02:15:00,mcc,40.62
2023-04-23T02:16:00,mcc,41.23
2023-04-23T02:17:00,mcc,41.12
2023-04-23T02:18:00,mcc,41.85
2023-04-23T02:19:00,mcc,39.47
2023-04-23T02:20:00,mcc,43.92
2023-04-23T02:21:00,mcc,41.07
2023-04-23T02:22:00,mcc,41.13
2023-04-23T02:23:00,mcc,42.64
2023-04-23T02:24:00,mcc,42.50
2023-04-23T02:25:00,mcc,44.90
2023-04-23T02:26:00,mcc,45.82
2023-04-23T02:27:00,mcc,46.44
2023-04-23T02:28:00,mcc,41.96
2023-04-23T02:29:00,mcc,41.05
2023-04-23T02:30:00,mcc,41.14
2023-04-23T02:31:00,mcc,42.15
2023-04-23T02:32:00,mcc,41.03
2023-04-23T02:33:00,mcc,39.90
2023-04-23T02:34:00,mcc,41.64
2023-04-23T02:35:00,mcc,38.87
2023-04-23T02:36:00,mcc,38.76
2023-04-23T02:37:00,mcc,39.07
2023-04-23T02:38:00,mcc,42.12
2023-04-23T02:39:00,mcc,40.15
2023-04-23T02:40:00,mcc,40.96
2023-04-23T02:41:00,mcc,48.66
2023-04-23T02:42:00,mcc,41.97
2023-04-23T02:43:00,mcc,40.89
2023-04-23T02:44:00,mcc,41.64
2023-04-23T02:45:00,mcc,38.36
2023-04-23T02:46:00,mcc,39.05
2023-04-23T02:47:00,mcc,39.82
2023-04-23T02:48:00,mcc,38.34
2023-04-23T02:49:00,mcc,40.69
2023-04-23T02:50:00,mcc,39.91
2023-04-23T02:51:00,mcc,40.99
2023-04-23T02:52:00,mcc,42.24
2023-04-23T02:53:00,mcc,42.43
2023-04-23T02:54:00,mcc,40.89
2023-04-23T02:55:00,mcc,41.58
2023-04-23T02:56:00,mcc,42.87
2023-04-23T02:57:00,mcc,40.02
2023-04-23T02:58:00,mcc,39.01
2023-04-23T02:59:00,mcc,38.15
2023-04-23T03:00:00,mcc,39.76
2023-04-23T03:01:00,mcc,41.14
2023-04-23T03:02:00,mcc,39.36
2023-04-23T03:03:00,mcc,39.18
2023-04-23T03:04:00,mcc,41.94
2023-04-23T03:05:00,mcc,40.32
2023-04-23T03:06:00,mcc,39.81
2023-04-23T03:07:00,mcc,42.76
2023-04-23T03:08:00,mcc,41.29
2023-04-23T03:09:00,mcc,40.05
2023-04-23T03:10:00,mcc,39.01
2023-04-23T03:11:00,mcc,39.28
2023-04-23T03:12:00,mcc,36.66
2023-04-23T03:13:00,mcc,36.87
2023-04-23T03:14:00,mcc,39.87
2023-04-23T03:15:00,mcc,38.21
2023-04-23T03:16:00,mcc,38.75
2023-04-23T03:17:00,mcc,40.01
2023-04-23T03:18:00,mcc,44.69
2023-04-23T03:19:00,mcc,41.59
2023-04-23T03:20:00,mcc,40.80
2023-04-23T03:21:00,mcc,43.08
2023-04-23T03:22:00,mcc,43.59
2023-04-23T03:23:00,mcc,45.01
2023-04-23T03:24:00,mcc,43.02
2023-04-23T03:25:00,mcc,45.89
2023-04-23T03:26:00,mcc,43.14
2023-04-23T03:27:00,mcc,43.92
2023-04-23T03:28:00,mcc,42.63
2023-04-23T03:29:00,mcc,42.45
2023-04-23T03:30:00,mcc,42.96
2023-04-23T03:31:00,mcc,44.28
2023-04-23T03:32:00,mcc,43.22
2023-04-23T03:33:00,mcc,42.24
2023-04-23T03:34:00,mcc,38.01
2023-04-23T03:35:00,mcc,38.60
2023-04-23T03:36:00,mcc,41.01
2023-04-23T03:37:00,mcc,37.24
2023-04-23T03:38:00,mcc,38.18
2023-04-23T03:39:00,mcc,38.03
2023-04-23T03:40:00,mcc,39.00
2023-04-23T03:41:00,mcc,38.36
2023-04-23T03:42:00,mcc,39.17
2023-04-23T03:43:00,mcc,50.11
2023-04-23T03:44:00,mcc,38.92
2023-04-23T03:45:00,mcc,38.59
2023-04-23T03:46:00,mcc,38.91
2023-04-23T03:47:00,mcc,41.56
2023-04-23T03:48:00,mcc,40.11
2023-04-23T03:49:00,mcc,38.04
2023-04-23T03:50:00,mcc,40.33
2023-04-23T03:51:00,mcc,40.28
2023-04-23T03:52:00,mcc,39.67
2023-04-23T03:53:00,mcc,40.49
2023-04-23T03:54:00,mcc,44.13
2023-04-23T03:55:00,mcc,39.62
2023-04-23T03:56:00,mcc,39.41
2023-04-23T03:57:00,mcc,40.78
2023-04-23T03:58:00,mcc,43.66
2023-04-23T03:59:00,mcc,38.35
2023-04-23T04:00:00,mcc,38.91
2023-04-23T04:01:00,mcc,40.60
2023-04-23T04:02:00,mcc,38.02
2023-04-23T04:03:00,mcc,47.20
2023-04-23T04:04:00,mcc,39.32
2023-04-23T04:05:00,mcc,42.24
2023-04-23T04:06:00,mcc,39.83
2023-04-23T04:07:00,mcc,37.43
2023-04-23T04:08:00,mcc,37.73
2023-04-23T04:09:00,mcc,37.21
2023-04-23T04:10:00,mcc,37.62
2023-04-23T04:11:00,mcc,39.06
2023-04-23T04:12:00,mcc,42.08
2023-04-23T04:13:00,mcc,41.78
2023-04-23T04:14:00,mcc,41.25
2023-04-23T04:15:00,mcc,42.28
2023-04-23T04:16:00,mcc,41.26
2023-04-23T04:17:00,mcc,39.30
2023-04-23T04:18:00,mcc,38.57
2023-04-23T04:19:00,mcc,37.54
2023-04-23T04:20:00,mcc,37.80
2023-04-23T04:21:00,mcc,37.36
2023-04-23T04:22:00,mcc,41.81
2023-04-23T04:23:00,mcc,52.23
2023-04-23T04:24:00,mcc,42.17
2023-04-23T04:25:00,mcc,40.31
2023-04-23T04:26:00,mcc,40.43
2023-04-23T04:27:00,mcc,42.15
2023-04-23T04:28:00,mcc,37.90
2023-04-23T04:29:00,mcc,36.85
2023-04-23T04:30:00,mcc,39.43
2023-04-23T04:31:00,mcc,38.15
2023-04-23T04:32:00,mcc,38.32
2023-04-23T04:33:00,mcc,37.89
2023-04-23T04:34:00,mcc,40.82
2023-04-23T04:35:00,mcc,39.97
2023-04-23T04:36:00,mcc,39.13
2023-04-23T04:37:00,mcc,41.07
2023-04-23T04:38:00,mcc,41.48
2023-04-23T04:39:00,mcc,41.19
2023-04-23T04:40:00,mcc,41.25
2023-04-23T04:41:00,mcc,45.03
2023-04-23T04:42:00,mcc,37.59
2023-04-23T04:43:00,mcc,36.97
2023-04-23T04:44:00,mcc,44.39
2023-04-23T04:45:00,mcc,41.53
2023-04-23T04:46:00,mcc,40.17
2023-04-23T04:47:00,mcc,41.23
2023-04-23T04:48:00,mcc,43.72
2023-04-23T04:49:00,mcc,41.41
2023-04-23T04:50:00,mcc,40.88
2023-04-23T04:51:00,mcc,41.16
2023-04-23T04:52:00,mcc,43.78
2023-04-23T04:53:00,mcc,39.78
2023-04-23T04:54:00,mcc,39.99
2023-04-23T04:55:00,mcc,38.50
2023-04-23T04:56:00,mcc,44.76
2023-04-23T04:57:00,mcc,40.77
2023-04-23T04:58:00,mcc,40.91
2023-04-23T04:59:00,mcc,41.55
2023-04-23T05:00:00,mcc,38.26
2023-04-23T05:01:00,mcc,39.93
2023-04-23T05:02:00,mcc,39.54
2023-04-23T05:03:00,mcc,50.80
2023-04-23T05:04:00,mcc,47.89
2023-04-23T05:05:00,mcc,54.06
2023-04-23T05:06:00,mcc,46.07
2023-04-23T05:07:00,mcc,36.30
2023-04-23T05:08:00,mcc,38.10
2023-04-23T05:09:00,mcc,38.52
2023-04-23T05:10:00,mcc,40.70
2023-04-23T05:11:00,mcc,40.50
2023-04-23T05:12:00,mcc,39.51
2023-04-23T05:13:00,mcc,41.17
2023-04-23T05:14:00,mcc,41.30
2023-04-23T05:15:00,mcc,42.04
2023-04-23T05:16:00,mcc,40.82
2023-04-23T05:17:00,mcc,40.54
2023-04-23T05:18:00,mcc,39.05
2023-04-23T05:19:00,mcc,39.34
2023-04-23T05:20:00,mcc,38.68
2023-04-23T05:21:00,mcc,41.10
2023-04-23T05:22:00,mcc,39.73
2023-04-23T05:23:00,mcc,38.75
2023-04-23T05:24:00,mcc,39.27
2023-04-23T05:25:00,mcc,40.24
2023-04-23T05:26:00,mcc,40.19
2023-04-23T05:27:00,mcc,41.56
2023-04-23T05:28:00,mcc,43.26
2023-04-23T05:29:00,mcc,39.15
2023-04-23T05:30:00,mcc,39.42
2023-04-23T05:31:00,mcc,39.25
2023-04-23T05:32:00,mcc,42.21
2023-04-23T05:33:00,mcc,38.50
2023-04-23T05:34:00,mcc,37.81
2023-04-23T05:35:00,mcc,40.55
2023-04-23T05:36:00,mcc,40.26
2023-04-23T05:37:00,mcc,39.51
2023-04-23T05:38:00,mcc,38.73
2023-04-23T05:39:00,mcc,40.50
2023-04-23T05:40:00,mcc,40.30
2023-04-23T05:41:00,mcc,39.39
2023-04-23T05:42:00,mcc,41.91
2023-04-23T05:43:00,mcc,42.32
2023-04-23T05:44:00,mcc,43.66
2023-04-23T05:45:00,mcc,42.46
2023-04-23T05:46:00,mcc,51.20
2023-04-23T05:47:00,mcc,38.70
2023-04-23T05:48:00,mcc,38.76
2023-04-23T05:49:00,mcc,37.92
2023-04-23T05:50:00,mcc,39.85
2023-04-23T05:51:00,mcc,39.08
2023-04-23T05:52:00,mcc,37.34
2023-04-23T05:53:00,mcc,42.10
2023-04-23T05:54:00,mcc,39.63
2023-04-23T05:55:00,mcc,38.14
2023-04-23T05:56:00,mcc,37.43
2023-04-23T05:57:00,mcc,39.47
2023-04-23T05:58:00,mcc,35.25
2023-04-23T05:59:00,mcc,35.27
2023-04-23T06:00:00,mcc,39.20
2023-04-23T06:01:00,mcc,37.95
2023-04-23T06:02:00,mcc,39.48
2023-04-23T06:03:00,mcc,39.43
2023-04-23T06:04:00,mcc,39.22
2023-04-23T06:05:00,mcc,36.73
2023-04-23T06:06:00,mcc,45.17
2023-04-23T06:07:00,mcc,37.76
2023-04-23T06:08:00,mcc,38.79
2023-04-23T06:09:00,mcc,38.10
2023-04-23T06:10:00,mcc,46.76
2023-04-23T06:11:00,mcc,41.51
2023-04-23T06:12:00,mcc,39.79
2023-04-23T06:13:00,mcc,37.40
2023-04-23T06:14:00,mcc,37.40
2023-04-23T06:15:00,mcc,39.41
2023-04-23T06:16:00,mcc,48.45
2023-04-23T06:17:00,mcc,47.88
2023-04-23T06:18:00,mcc,49.37
2023-04-23T06:19:00,mcc,48.54
2023-04-23T06:20:00,mcc,42.90
2023-04-23T06:21:00,mcc,41.27
2023-04-23T06:22:00,mcc,43.53
2023-04-23T06:23:00,mcc,42.11
2023-04-23T06:24:00,mcc,41.50
2023-04-23T06:25:00,mcc,51.66
2023-04-23T06:26:00,mcc,42.72
2023-04-23T06:27:00,mcc,40.22
2023-04-23T06:28:00,mcc,37.89
2023-04-23T06:29:00,mcc,42.22
2023-04-23T06:30:00,mcc,39.62
2023-04-23T06:31:00,mcc,35.94
2023-04-23T06:32:00,mcc,36.41
2023-04-23T06:33:00,mcc,40.67
2023-04-23T06:34:00,mcc,39.42
2023-04-23T06:35:00,mcc,39.15
2023-04-23T06:36:00,mcc,39.88
2023-04-23T06:37:00,mcc,41.88
2023-04-23T06:38:00,mcc,40.32
2023-04-23T06:39:00,mcc,38.51
2023-04-23T06:40:00,mcc,40.05
2023-04-23T06:41:00,mcc,37.53
2023-04-23T06:42:00,mcc,38.71
2023-04-23T06:43:00,mcc,38.28
2023-04-23T06:44:00,mcc,40.23
2023-04-23T06:45:00,mcc,38.06
2023-04-23T06:46:00,mcc,48.58
2023-04-23T06:47:00,mcc,42.51
2023-04-23T06:48:00,mcc,38.56
2023-04-23T06:49:00,mcc,37.23
2023-04-23T06:50:00,mcc,39.24
2023-04-23T06:51:00,mcc,42.55
2023-04-23T06:52:00,mcc,38.84
2023-04-23T06:53:00,mcc,39.16
2023-04-23T06:54:00,mcc,41.07
2023-04-23T06:55:00,mcc,41.73
2023-04-23T06:56:00,mcc,40.98
2023-04-23T06:57:00,mcc,37.86
2023-04-23T06:58:00,mcc,38.83
2023-04-23T06:59:00,mcc,36.61
2023-04-23T07:00:00,mcc,37.62
2023-04-23T07:01:00,mcc,37.73
2023-04-23T07:02:00,mcc,39.02
2023-04-23T07:03:00,mcc,34.77
2023-04-23T07:04:00,mcc,35.62
2023-04-23T07:05:00,mcc,36.35
2023-04-23T07:06:00,mcc,45.91
2023-04-23T07:07:00,mcc,36.16
2023-04-23T07:08:00,mcc,34.94
2023-04-23T07:09:00,mcc,39.71
2023-04-23T07:10:00,mcc,39.55
2023-04-23T07:11:00,mcc,39.32
2023-04-23T07:12:00,mcc,39.31
2023-04-23T07:13:00,mcc,42.16
2023-04-23T07:14:00,mcc,40.83
2023-04-23T07:15:00,mcc,41.45
2023-04-23T07:16:00,mcc,37.68
2023-04-23T07:17:00,mcc,37.65
2023-04-23T07:18:00,mcc,37.77
2023-04-23T07:19:00,mcc,36.12
2023-04-23T07:20:00,mcc,37.33
2023-04-23T07:21:00,mcc,37.02
2023-04-23T07:22:00,mcc,38.64
2023-04-23T07:23:00,mcc,41.43
2023-04-23T07:24:00,mcc,40.54
2023-04-23T07:25:00,mcc,42.97
2023-04-23T07:26:00,mcc,49.15
2023-04-23T07:27:00,mcc,45.66
2023-04-23T07:28:00,mcc,40.86
2023-04-23T07:29:00,mcc,40.69
2023-04-23T07:30:00,mcc,41.20
2023-04-23T07:31:00,mcc,41.03
2023-04-23T07:32:00,mcc,40.77
2023-04-23T07:33:00,mcc,40.56
2023-04-23T07:34:00,mcc,38.84
2023-04-23T07:35:00,mcc,39.62
2023-04-23T07:36:00,mcc,38.43
2023-04-23T07:37:00,mcc,39.14
2023-04-23T07:38:00,mcc,41.43
2023-04-23T07:39:00,mcc,39.29
2023-04-23T07:40:00,mcc,40.57
2023-04-23T07:41:00,mcc,40.96
2023-04-23T07:42:00,mcc,42.59
2023-04-23T07:43:00,mcc,37.72
2023-04-23T07:44:00,mcc,36.52
2023-04-23T07:45:00,mcc,37.42
2023-04-23T07:46:00,mcc,38.99
2023-04-23T07:47:00,mcc,46.97
2023-04-23T07:48:00,mcc,39.16
2023-04-23T07:49:00,mcc,42.68
2023-04-23T07:50:00,mcc,41.99
2023-04-23T07:51:00,mcc,42.71
2023-04-23T07:52:00,mcc,42.33
2023-04-23T07:53:00,mcc,41.33
2023-04-23T07:54:00,mcc,41.15
2023-04-23T07:55:00,mcc,37.90
2023-04-23T07:56:00,mcc,38.96
2023-04-23T07:57:00,mcc,38.34
2023-04-23T07:58:00,mcc,38.08
2023-04-23T07:59:00,mcc,39.96
2023-04-23T08:00:00,mcc,40.01
2023-04-23T08:01:00,mcc,37.30
2023-04-23T08:02:00,mcc,38.83
2023-04-23T08:03:00,mcc,38.96
2023-04-23T08:04:00,mcc,41.14
2023-04-23T08:05:00,mcc,38.43
2023-04-23T08:06:00,mcc,37.87
2023-04-23T08:07:00,mcc,40.13
2023-04-23T08:08:00,mcc,47.78
2023-04-23T08:09:00,mcc,39.12
2023-04-23T08:10:00,mcc,36.57
2023-04-23T08:11:00,mcc,39.26
2023-04-23T08:12:00,mcc,37.23
2023-04-23T08:13:00,mcc,38.28
2023-04-23T08:14:00,mcc,37.82
2023-04-23T08:15:00,mcc,39.08
2023-04-23T08:16:00,mcc,38.91
2023-04-23T08:17:00,mcc,39.94
2023-04-23T08:18:00,mcc,41.30
2023-04-23T08:19:00,mcc,38.53
2023-04-23T08:20:00,mcc,39.55
2023-04-23T08:21:00,mcc,42.35
2023-04-23T08:22:00,mcc,44.90
2023-04-23T08:23:00,mcc,42.94
2023-04-23T08:24:00,mcc,43.25
2023-04-23T08:25:00,mcc,42.19
2023-04-23T08:26:00,mcc,55.64
2023-04-23T08:27:00,mcc,45.08
2023-04-23T08:28:00,mcc,42.19
2023-04-23T08:29:00,mcc,39.85
2023-04-23T08:30:00,mcc,37.38
2023-04-23T08:31:00,mcc,38.79
2023-04-23T08:32:00,mcc,38.45
2023-04-23T08:33:00,mcc,38.84
2023-04-23T08:34:00,mcc,38.31
2023-04-23T08:35:00,mcc,40.05
2023-04-23T08:36:00,mcc,41.08
2023-04-23T08:37:00,mcc,40.45
2023-04-23T08:38:00,mcc,39.02
2023-04-23T08:39:00,mcc,37.05
2023-04-23T08:40:00,mcc,40.64
2023-04-23T08:41:00,mcc,36.32
2023-04-23T08:42:00,mcc,36.18
2023-04-23T08:43:00,mcc,36.22
2023-04-23T08:44:00,mcc,37.79
2023-04-23T08:45:00,mcc,38.31
2023-04-23T08:46:00,mcc,38.41
2023-04-23T08:47:00,mcc,40.68
2023-04-23T08:48:00,mcc,36.88
2023-04-23T08:49:00,mcc,37.45
2023-04-23T08:50:00,mcc,38.02
2023-04-23T08:51:00,mcc,41.14
2023-04-23T08:52:00,mcc,38.84
2023-04-23T08:53:00,mcc,41.53
2023-04-23T08:54:00,mcc,41.00
2023-04-23T08:55:00,mcc,42.64
2023-04-23T08:56:00,mcc,42.60
2023-04-23T08:57:00,mcc,43.07
2023-04-23T08:58:00,mcc,43.10
2023-04-23T08:59:00,mcc,38.81
2023-04-23T09:00:00,mcc,37.53
2023-04-23T09:01:00,mcc,38.15
2023-04-23T09:02:00,mcc,40.62
2023-04-23T09:03:00,mcc,36.78
2023-04-23T09:04:00,mcc,36.77
2023-04-23T09:05:00,mcc,38.14
2023-04-23T09:06:00,mcc,37.00
2023-04-23T09:07:00,mcc,35.95
2023-04-23T09:08:00,mcc,45.50
2023-04-23T09:09:00,mcc,41.03
2023-04-23T09:10:00,mcc,39.10
2023-04-23T09:11:00,mcc,36.86
2023-04-23T09:12:00,mcc,40.37
2023-04-23T09:13:00,mcc,39.68
2023-04-23T09:14:00,mcc,36.75
2023-04-23T09:15:00,mcc,36.40
2023-04-23T09:16:00,mcc,36.57
2023-04-23T09:17:00,mcc,35.92
2023-04-23T09:18:00,mcc,36.31
2023-04-23T09:19:00,mcc,37.36
2023-04-23T09:20:00,mcc,40.31
2023-04-23T09:21:00,mcc,43.30
2023-04-23T09:22:00,mcc,41.64
2023-04-23T09:23:00,mcc,41.07
2023-04-23T09:24:00,mcc,42.34
2023-04-23T09:25:00,mcc,40.59
2023-04-23T09:26:00,mcc,41.00
2023-04-23T09:27:00,mcc,42.66
2023-04-23T09:28:00,mcc,40.34
2023-04-23T09:29:00,mcc,40.45
2023-04-23T09:30:00,mcc,40.37
2023-04-23T09:31:00,mcc,41.67
2023-04-23T09:32:00,mcc,41.25
2023-04-23T09:33:00,mcc,40.74
2023-04-23T09:34:00,mcc,40.48
2023-04-23T09:35:00,mcc,38.47
2023-04-23T09:36:00,mcc,38.78
2023-04-23T09:37:00,mcc,36.70
2023-04-23T09:38:00,mcc,38.86
2023-04-23T09:39:00,mcc,36.83
2023-04-23T09:40:00,mcc,36.46
2023-04-23T09:41:00,mcc,35.68
2023-04-23T09:42:00,mcc,37.75
2023-04-23T09:43:00,mcc,35.40
2023-04-23T09:44:00,mcc,36.50
2023-04-23T09:45:00,mcc,37.91
2023-04-23T09:46:00,mcc,39.23
2023-04-23T09:47:00,mcc,40.11
2023-04-23T09:48:00,mcc,39.39
2023-04-23T09:49:00,mcc,48.51
2023-04-23T09:50:00,mcc,38.35
2023-04-23T09:51:00,mcc,38.20
2023-04-23T09:52:00,mcc,38.27
2023-04-23T09:53:00,mcc,39.42
2023-04-23T09:54:00,mcc,38.70
2023-04-23T09:55:00,mcc,40.39
2023-04-23T09:56:00,mcc,40.91
2023-04-23T09:57:00,mcc,38.56
2023-04-23T09:58:00,mcc,37.58
2023-04-23T09:59:00,mcc,37.51
2023-04-23T10:00:00,mcc,39.67
2023-04-23T10:01:00,mcc,36.99
2023-04-23T10:02:00,mcc,39.85
2023-04-23T10:03:00,mcc,47.42
2023-04-23T10:04:00,mcc,47.91
2023-04-23T10:05:00,mcc,47.53
2023-04-23T10:06:00,mcc,46.84
2023-04-23T10:07:00,mcc,41.79
2023-04-23T10:08:00,mcc,40.44
2023-04-23T10:09:00,mcc,40.36
2023-04-23T10:10:00,mcc,46.40
2023-04-23T10:11:00,mcc,38.31
2023-04-23T10:12:00,mcc,38.11
2023-04-23T10:13:00,mcc,38.52
2023-04-23T10:14:00,mcc,39.01
2023-04-23T10:15:00,mcc,39.53
2023-04-23T10:16:00,mcc,39.12
2023-04-23T10:17:00,mcc,37.30
2023-04-23T10:18:00,mcc,40.11
2023-04-23T10:19:00,mcc,38.44
2023-04-23T10:20:00,mcc,39.70
2023-04-23T10:21:00,mcc,42.53
2023-04-23T10:22:00,mcc,44.48
2023-04-23T10:23:00,mcc,43.44
2023-04-23T10:24:00,mcc,43.52
2023-04-23T10:25:00,mcc,43.99
2023-04-23T10:26:00,mcc,41.81
2023-04-23T10:27:00,mcc,41.88
2023-04-23T10:28:00,mcc,38.74
2023-04-23T10:29:00,mcc,41.27
2023-04-23T10:30:00,mcc,38.87
2023-04-23T10:31:00,mcc,37.94
2023-04-23T10:32:00,mcc,37.68
2023-04-23T10:33:00,mcc,37.96
2023-04-23T10:34:00,mcc,38.22
2023-04-23T10:35:00,mcc,37.65
2023-04-23T10:36:00,mcc,40.19
2023-04-23T10:37:00,mcc,41.63
2023-04-23T10:38:00,mcc,52.14
2023-04-23T10:39:00,mcc,51.33
2023-04-23T10:40:00,mcc,52.61
2023-04-23T10:41:00,mcc,51.00
2023-04-23T10:42:00,mcc,41.59
2023-04-23T10:43:00,mcc,40.04
2023-04-23T10:44:00,mcc,41.24
2023-04-23T10:45:00,mcc,42.46
2023-04-23T10:46:00,mcc,39.18
2023-04-23T10:47:00,mcc,40.78
2023-04-23T10:48:00,mcc,36.89
2023-04-23T10:49:00,mcc,37.65
2023-04-23T10:50:00,mcc,38.15
2023-04-23T10:51:00,mcc,39.71
2023-04-23T10:52:00,mcc,46.37
2023-04-23T10:53:00,mcc,39.61
2023-04-23T10:54:00,mcc,39.67
2023-04-23T10:55:00,mcc,37.81
2023-04-23T10:56:00,mcc,38.36
2023-04-23T10:57:00,mcc,36.62
2023-04-23T10:58:00,mcc,38.35
2023-04-23T10:59:00,mcc,35.93
2023-04-23T11:00:00,mcc,35.49
2023-04-23T11:01:00,mcc,36.61
2023-04-23T11:02:00,mcc,38.41
2023-04-23T11:03:00,mcc,36.46
2023-04-23T11:04:00,mcc,37.52
2023-04-23T11:05:00,mcc,40.43
2023-04-23T11:06:00,mcc,39.21
2023-04-23T11:07:00,mcc,50.20
2023-04-23T11:08:00,mcc,38.90
2023-04-23T11:09:00,mcc,41.43
2023-04-23T11:10:00,mcc,40.30
2023-04-23T11:11:00,mcc,41.75
2023-04-23T11:12:00,mcc,42.66
2023-04-23T11:13:00,mcc,51.74
2023-04-23T11:14:00,mcc,43.08
2023-04-23T11:15:00,mcc,41.10
2023-04-23T11:16:00,mcc,40.80
2023-04-23T11:17:00,mcc,42.20
2023-04-23T11:18:00,mcc,48.27
2023-04-23T11:19:00,mcc,49.74
2023-04-23T11:20:00,mcc,51.23
2023-04-23T11:21:00,mcc,50.36
2023-04-23T11:22:00,mcc,49.07
2023-04-23T11:23:00,mcc,51.50
2023-04-23T11:24:00,mcc,52.92
2023-04-23T11:25:00,mcc,50.87
2023-04-23T11:26:00,mcc,49.91
2023-04-23T11:27:00,mcc,49.85
2023-04-23T11:28:00,mcc,48.29
2023-04-23T11:29:00,mcc,49.12
2023-04-23T11:30:00,mcc,50.85
2023-04-23T11:31:00,mcc,53.15
2023-04-23T11:32:00,mcc,48.97
2023-04-23T11:33:00,mcc,57.09
2023-04-23T11:34:00,mcc,50.44
2023-04-23T11:35:00,mcc,47.44
2023-04-23T11:36:00,mcc,47.99
2023-04-23T11:37:00,mcc,47.10
2023-04-23T11:38:00,mcc,51.66
2023-04-23T11:39:00,mcc,50.55
2023-04-23T11:40:00,mcc,48.98
2023-04-23T11:41:00,mcc,47.68
2023-04-23T11:42:00,mcc,46.13
2023-04-23T11:43:00,mcc,45.66
2023-04-23T11:44:00,mcc,45.91
2023-04-23T11:45:00,mcc,46.42
2023-04-23T11:46:00,mcc,47.50
2023-04-23T11:47:00,mcc,49.58
2023-04-23T11:48:00,mcc,50.52
2023-04-23T11:49:00,mcc,53.38
2023-04-23T11:50:00,mcc,53.54
2023-04-23T11:51:00,mcc,52.71
2023-04-23T11:52:00,mcc,52.17
2023-04-23T11:53:00,mcc,51.49
2023-04-23T11:54:00,mcc,59.13
2023-04-23T11:55:00,mcc,53.13
2023-04-23T11:56:00,mcc,54.80
2023-04-23T11:57:00,mcc,49.74
2023-04-23T11:58:00,mcc,51.49
2023-04-23T11:59:00,mcc,48.47
2023-04-23T12:00:00,mcc,50.97
2023-04-23T12:01:00,mcc,51.01
2023-04-23T12:02:00,mcc,53.25
2023-04-23T12:03:00,mcc,49.90
2023-04-23T12:04:00,mcc,52.42
2023-04-23T12:05:00,mcc,49.34
2023-04-23T12:06:00,mcc,50.13
2023-04-23T12:07:00,mcc,49.43
2023-04-23T12:08:00,mcc,46.17
2023-04-23T12:09:00,mcc,47.69
2023-04-23T12:10:00,mcc,48.14
2023-04-23T12:11:00,mcc,47.27
2023-04-23T12:12:00,mcc,49.81
2023-04-23T12:13:00,mcc,49.69
2023-04-23T12:14:00,mcc,49.70
2023-04-23T12:15:00,mcc,51.90
2023-04-23T12:16:00,mcc,49.69
2023-04-23T12:17:00,mcc,49.91
2023-04-23T12:18:00,mcc,56.20
2023-04-23T12:19:00,mcc,48.98
2023-04-23T12:20:00,mcc,49.56
2023-04-23T12:21:00,mcc,52.97
2023-04-23T12:22:00,mcc,57.41
2023-04-23T12:23:00,mcc,58.46
2023-04-23T12:24:00,mcc,65.79
2023-04-23T12:25:00,mcc,57.42
2023-04-23T12:26:00,mcc,57.38
2023-04-23T12:27:00,mcc,56.70
2023-04-23T12:28:00,mcc,57.73
2023-04-23T12:29:00,mcc,57.68
2023-04-23T12:30:00,mcc,57.94
2023-04-23T12:31:00,mcc,59.98
2023-04-23T12:32:00,mcc,59.22
2023-04-23T12:33:00,mcc,60.49
2023-04-23T12:34:00,mcc,58.50
2023-04-23T12:35:00,mcc,57.40
2023-04-23T12:36:00,mcc,57.58
2023-04-23T12:37:00,mcc,53.16
2023-04-23T12:38:00,mcc,51.11
2023-04-23T12:39:00,mcc,48.06
2023-04-23T12:40:00,mcc,46.85
2023-04-23T12:41:00,mcc,48.58
2023-04-23T12:42:00,mcc,49.82
2023-04-23T12:43:00,mcc,63.98
2023-04-23T12:44:00,mcc,52.47
2023-04-23T12:45:00,mcc,51.14
2023-04-23T12:46:00,mcc,50.39
2023-04-23T12:47:00,mcc,46.97
2023-04-23T12:48:00,mcc,47.31
2023-04-23T12:49:00,mcc,51.48
2023-04-23T12:50:00,mcc,52.81
2023-04-23T12:51:00,mcc,50.68
2023-04-23T12:52:00,mcc,52.02
2023-04-23T12:53:00,mcc,51.88
2023-04-23T12:54:00,mcc,61.06
2023-04-23T12:55:00,mcc,51.64
2023-04-23T12:56:00,mcc,47.95
2023-04-23T12:57:00,mcc,49.86
2023-04-23T12:58:00,mcc,48.46
2023-04-23T12:59:00,mcc,49.03
2023-04-23T13:00:00,mcc,57.59
2023-04-23T13:01:00,mcc,45.30
2023-04-23T13:02:00,mcc,53.46
2023-04-23T13:03:00,mcc,48.41
2023-04-23T13:04:00,mcc,47.29
2023-04-23T13:05:00,mcc,46.30
2023-04-23T13:06:00,mcc,56.28
2023-04-23T13:07:00,mcc,55.33
2023-04-23T13:08:00,mcc,50.96
2023-04-23T13:09:00,mcc,47.27
2023-04-23T13:10:00,mcc,48.97
2023-04-23T13:11:00,mcc,48.68
2023-04-23T13:12:00,mcc,48.84
2023-04-23T13:13:00,mcc,55.16
2023-04-23T13:14:00,mcc,48.91
2023-04-23T13:15:00,mcc,51.28
2023-04-23T13:16:00,mcc,53.07
2023-04-23T13:17:00,mcc,52.79
2023-04-23T13:18:00,mcc,51.50